Content
SEND FEEDBACK

Daily
Averages
Monthly
Summary
Malaysia

KUCHING, MALAYSIA


Home > Asia > Malaysia
Elevation: 89 feet     Latitude: 01 29N     Longitude: 110 20E

WEATHER
 
SELECT A DAY
Number of Records: 270,456;   Date Range: 8/9/96 - 8/10/14
 
SHARE

PRINT THIS DATA

[ ← Previous Day ]
WEATHER ALMANAC - AUGUST 18, 2013
[ Next Day → ]
[ °C ]   °F
Weather ElementAverageHighLow
Temperature81.9 °F95 °F (3:00 pm)73.4 °F (6:30 am)
Dewpoint72.2 °F75.2 °F (5:30 pm)66.2 °F (3:00 pm)
Humidity73.8 %100 % (6:30 am)39 % (3:00 pm)
Barometer29.82 in29.89 in (8:30 am)29.71 in (3:30 pm)
Wind Speed4.3 mph11.5 mph (5:30 pm)
Weather ElementAverage
Visibility5.1 mi
Wind DirectionSSW (189.1 °)

Weather ElementTotal
Precipitation---
Cooling Degree Days19.2 (Base 65)
Growing Degree Days34.2 (Base 50)
Averaged from 55 records on August 18, 2013
WEATHER CONDITIONS BREAKOUT
WIND DIRECTION BREAKOUT
WEATHER BY HOUR - AUGUST 18, 2013
[ °C ]   °F
Local TimeTemperatureDewpointHumidityBarometerVisibilityWind DirectionWind SpeedGust SpeedPrecipitationEventsConditions
12:30 AM77.0 °F73.4 °F89 %29.86 in6.2 miSSE (150°)3.5 mphMostly Cloudy
1:00 AM75.2 °F73.4 °F94 %29.83 in6.2 miSE (130°)1.2 mphMostly Cloudy
1:30 AM77.0 °F73.4 °F89 %29.83 in6.2 miSSW (200°)2.3 mphMostly Cloudy
2:00 AM77.0 °F72.0 °F81 %29.85 in9.0 miWSW (240°)2.3 mphScattered Clouds
2:00 AM77.0 °F71.6 °F83 %29.83 in6.2 miWSW (240°)2.3 mphMostly Cloudy
2:30 AM75.2 °F73.4 °F94 %29.83 in6.2 miSSE (160°)5.8 mphMostly Cloudy
3:00 AM75.2 °F73.4 °F94 %29.83 in6.2 miSouth (190°)1.2 mphMostly Cloudy
3:30 AM75.2 °F73.4 °F94 %29.83 in6.2 miWNW (300°)1.2 mphMostly Cloudy
4:00 AM75.2 °F73.4 °F94 %29.80 in6.2 miNNW (330°)1.2 mphMostly Cloudy
4:30 AM75.2 °F73.4 °F94 %29.80 in6.2 miCalmMostly Cloudy
5:00 AM75.0 °F73.0 °F92 %29.83 in9.0 miSouth (190°)3.5 mphScattered Clouds
5:00 AM75.2 °F73.4 °F94 %29.80 in6.2 miSouth (190°)3.5 mphMostly Cloudy
5:30 AM75.2 °F73.4 °F94 %29.83 in6.2 miSSE (160°)3.5 mphMostly Cloudy
6:00 AM75.2 °F73.4 °F94 %29.83 in3.7 miSE (130°)2.3 mphMostly Cloudy
6:30 AM73.4 °F73.4 °F100 %29.83 in3.7 miSE (140°)3.5 mphMostly Cloudy
7:00 AM73.4 °F71.6 °F94 %29.83 in4.3 miSSE (150°)2.3 mphMostly Cloudy
7:30 AM75.2 °F71.6 °F89 %29.86 in4.3 miNW (320°)1.2 mphMostly Cloudy
8:00 AM78.0 °F73.0 °F80 %29.88 in4.0 miNE (50°)2.3 mphHaze
8:00 AM77.0 °F73.4 °F89 %29.86 in3.7 miNE (50°)2.3 mphMostly Cloudy
8:30 AM78.8 °F73.4 °F83 %29.89 in3.7 miSE (140°)1.2 mphMostly Cloudy
9:00 AM82.4 °F73.4 °F74 %29.86 in3.1 miSE (130°)3.5 mphHaze
9:30 AM84.2 °F73.4 °F70 %29.86 in3.1 miSouth (180°)4.6 mphHaze
10:00 AM86.0 °F73.4 °F66 %29.86 in3.1 miSouth (180°)4.6 mphHaze
10:30 AM87.8 °F73.4 °F62 %29.86 in3.1 miSouth (170°)6.9 mphHaze
11:00 AM89.0 °F73.0 °F50 %29.86 in4.0 miSE (140°)6.9 mphHaze
11:00 AM89.6 °F73.4 °F59 %29.86 in4.3 miSE (140°)6.9 mphMostly Cloudy
11:30 AM89.6 °F73.4 °F59 %29.83 in5.0 miSouth (180°)5.8 mphMostly Cloudy
12:00 PM91.4 °F73.4 °F55 %29.83 in5.0 miEast (100°)5.8 mphMostly Cloudy
12:30 PM91.4 °F73.4 °F55 %29.80 in5.0 miSSE (150°)6.9 mphMostly Cloudy
1:00 PM93.2 °F71.6 °F49 %29.80 in6.2 miSE (140°)5.8 mphMostly Cloudy
1:30 PM91.4 °F71.6 °F52 %29.77 in6.2 miSouth (170°)4.6 mphMostly Cloudy
2:00 PM92.0 °F71.0 °F40 %29.78 in9.0 miSSE (150°)5.8 mphHaze
2:00 PM91.4 °F69.8 °F49 %29.77 in6.2 miSSE (150°)5.8 mphMostly Cloudy
2:30 PM93.2 °F69.8 °F46 %29.74 in6.2 miSE (130°)5.8 mphMostly Cloudy
3:00 PM95.0 °F66.2 °F39 %29.74 in5.0 miSSE (160°)5.8 mphMostly Cloudy
3:30 PM95.0 °F69.8 °F44 %29.71 in5.0 miSSE (150°)5.8 mphMostly Cloudy
4:00 PM93.2 °F71.6 °F49 %29.71 in3.7 miSSE (160°)8.1 mphMostly Cloudy
4:30 PM89.6 °F71.6 °F55 %29.71 in3.7 miSouth (170°)6.9 mphThunderstormThunderstorm
5:00 PM87.0 °F73.0 °F54 %29.75 in4.0 miWNW (290°)10.4 mphThunderstormThunderstorm
5:00 PM86.0 °F73.4 °F66 %29.74 in3.7 miWNW (290°)10.4 mphThunderstormThunderstorm
5:30 PM82.4 °F75.2 °F79 %29.74 in3.7 miNW (320°)11.5 mphThunderstormThunderstorm
6:00 PM80.6 °F69.8 °F70 %29.77 in3.7 miNNW (330°)6.9 mphThunderstormThunderstorm
6:30 PM80.6 °F68.0 °F65 %29.77 in3.7 miWSW (250°)4.6 mphMostly Cloudy
7:00 PM78.8 °F69.8 °F74 %29.80 in3.7 miWest (280°)4.6 mphMostly Cloudy
7:30 PM78.8 °F69.8 °F74 %29.80 in3.7 miWest (270°)1.2 mphMostly Cloudy
8:00 PM79.0 °F71.0 °F69 %29.82 in5.0 miWest (270°)2.3 mphHaze
8:00 PM78.8 °F69.8 °F74 %29.80 in5.0 miWest (270°)2.3 mphMostly Cloudy
8:30 PM78.8 °F71.6 °F78 %29.83 in5.0 miWest (280°)2.3 mphMostly Cloudy
9:00 PM78.8 °F71.6 °F78 %29.83 in5.0 miWSW (250°)4.6 mphMostly Cloudy
9:30 PM80.6 °F71.6 °F74 %29.83 in5.6 miWSW (240°)6.9 mphMostly Cloudy
10:00 PM80.6 °F71.6 °F74 %29.83 in6.2 miSW (230°)4.6 mphMostly Cloudy
10:30 PM78.8 °F73.4 °F83 %29.86 in6.2 miSW (220°)2.3 mphMostly Cloudy
11:00 PM78.0 °F73.0 °F80 %29.86 in6.0 miSSW (200°)3.5 mphHaze
11:00 PM77.0 °F73.4 °F89 %29.86 in6.2 miSSW (200°)3.5 mphMostly Cloudy
11:30 PM77.0 °F73.4 °F89 %29.86 in6.2 miCalmMostly Cloudy
Hourly data recorded from WBGG, located miles away from Kuching, Malaysia







STORIES FROM OUR PARTNERS